Laramie, WY

1:56 AM MDT on September 26, 2017 (GMT -0600)
Laramie Regional

Weather History for KLAR - April, 2014

Change the Weather History Date:

Wednesday, April 30, 2014

  Actual Average Record
Temperature  
Mean Temperature 33 °F 42 °F  
Max Temperature 39 °F 56 °F 76 °F (1992)
Min Temperature 26 °F 29 °F 6 °F (1950)
Degree Days  
Heating Degree Days 32 23  
Month to date heating degree days 794 815  
Since 1 July heating degree days 7835 8049  
Cooling Degree Days 0 0  
Month to date cooling degree days 0 0  
Year to date cooling degree days 0 0  
Moisture  
Dew Point 21 °F    
Average Humidity 64    
Maximum Humidity 84    
Minimum Humidity 44    
Precipitation  
Precipitation T in 0.05 in 0.57 in (1951)
Month to date precipitation 0.37 1.07  
Year to date precipitation 2.10 2.26  
Sea Level Pressure  
Sea Level Pressure 30.32 in    
Wind  
Wind Speed 22 mph (NNW)    
Max Wind Speed 35 mph    
Max Gust Speed 47 mph    
Visibility 8 miles    
Events Snow    
T = Trace of Precipitation, MM = Missing Value Source: NWS Daily Summary

Daily Weather History Graph

Daily Weather History Graph

Search for Another Location

Airport or City:

Trip Planner

Search our weather history database for the weather conditions in past years. The results will help you decide how hot, cold, wet, or windy it might be!

Date:

Astronomy

Apr. 30, 2014 Rise Set
Actual Time 6:01 AM MDT 7:59 PM MDT
Civil Twilight 5:31 AM MDT 8:29 PM MDT
Nautical Twilight 4:54 AM MDT 9:05 PM MDT
Astronomical Twilight 4:15 AM MDT 9:45 PM MDT
Moon 7:04 AM MDT (4/30) 9:41 PM MDT (4/30)
Length of Visible Light 14h 57m
Length of Day
13h 57m
Waxing Crescent, 3% of the Moon is Illuminated
Apr 30
Waxing Crescent
May 6
First Quarter
May 14
Full
May 21
Last Quarter
May 28
New

Hourly Weather History & Observations

Time (MDT) Temp. Windchill Dew Point Humidity Pressure Visibility Wind Dir Wind Speed Gust Speed Precip Events Conditions
12:53 AM 27.0 °F 10.5 °F 21.9 °F 81% 30.30 in 9.0 mi NNW 31.1 mph 42.6 mph 0.00 in   Overcast
1:53 AM 27.0 °F 10.8 °F 23.0 °F 85% 30.28 in 5.0 mi NNW 29.9 mph 40.3 mph 0.00 in Snow Light Snow
2:35 AM 27.0 °F 10.8 °F 23.0 °F 85% 30.27 in 6.0 mi NW 29.9 mph 38.0 mph 0.00 in Snow Light Snow
2:53 AM 27.0 °F 11.6 °F 23.0 °F 85% 30.28 in 9.0 mi NNW 26.5 mph 34.5 mph 0.00 in   Overcast
3:34 AM 26.1 °F 11.0 °F 23.0 °F 88% 30.28 in 10.0 mi NW 24.2 mph 36.8 mph 0.00 in   Overcast
3:51 AM 26.6 °F 13.1 °F 23.0 °F 86% 30.29 in 10.0 mi NNW 19.6 mph 32.2 mph 0.00 in   Overcast
3:53 AM 26.1 °F 11.3 °F 23.0 °F 88% 30.31 in 10.0 mi NNW 23.0 mph 32.2 mph 0.00 in   Overcast
4:24 AM 27.0 °F 13.5 °F 21.9 °F 81% 30.29 in 10.0 mi NNW 19.6 mph 31.1 mph N/A   Overcast
4:53 AM 27.0 °F 13.2 °F 23.0 °F 85% 30.29 in 7.0 mi NW 20.7 mph - 0.00 in   Overcast
5:53 AM 27.0 °F 11.0 °F 21.0 °F 78% 30.32 in 10.0 mi NNW 28.8 mph 39.1 mph N/A   Overcast
6:53 AM 27.0 °F 12.2 °F 21.0 °F 78% 30.34 in 8.0 mi NNW 24.2 mph 36.8 mph 0.00 in Snow Light Snow
7:53 AM 27.0 °F 11.6 °F 21.0 °F 78% 30.37 in 6.0 mi NNW 26.5 mph 33.4 mph 0.00 in Snow Light Snow
8:12 AM 27.0 °F 13.5 °F 21.9 °F 81% 30.32 in 2.0 mi NW 19.6 mph 32.2 mph 0.00 in Snow Light Snow
8:17 AM 27.0 °F 12.5 °F 21.9 °F 81% 30.32 in 3.0 mi NNW 23.0 mph 34.5 mph 0.00 in Snow Light Snow
8:39 AM 27.0 °F 12.8 °F 21.0 °F 78% 30.33 in 2.5 mi NNW 21.9 mph 35.7 mph 0.00 in Snow Light Snow
9:23 AM 28.0 °F 13.6 °F 21.9 °F 78% 30.33 in 2.0 mi NNW 24.2 mph 34.5 mph 0.00 in Snow Light Snow
9:41 AM 28.9 °F 14.0 °F 23.0 °F 78% 30.32 in 2.0 mi NNW 27.6 mph 35.7 mph 0.00 in Snow Light Snow
9:49 AM 28.4 °F 13.8 °F 23.0 °F 80% 30.32 in 1.5 mi NNW 25.3 mph 39.1 mph 0.00 in Snow Light Snow
9:53 AM 30.0 °F 14.9 °F 23.0 °F 75% 30.36 in 2.0 mi NNW 29.9 mph 39.1 mph 0.00 in Snow Light Snow
10:01 AM 30.0 °F 16.0 °F 23.0 °F 75% 30.32 in 6.0 mi NNW 25.3 mph 39.1 mph 0.00 in Snow Light Snow
10:43 AM 30.0 °F 14.7 °F 21.9 °F 72% 30.32 in 10.0 mi NNW 31.1 mph 39.1 mph 0.00 in   Overcast
10:53 AM 30.9 °F 16.2 °F 21.0 °F 67% 30.36 in 10.0 mi NNW 29.9 mph 36.8 mph 0.00 in   Overcast
11:53 AM 32.0 °F 18.9 °F 19.9 °F 61% 30.36 in 10.0 mi NNW 24.2 mph 34.5 mph 0.00 in   Overcast
12:20 PM 32.0 °F 17.6 °F 19.9 °F 61% 30.32 in 10.0 mi NNW 29.9 mph 36.8 mph 0.00 in   Overcast
12:27 PM 32.0 °F 18.4 °F 19.9 °F 61% 30.32 in 10.0 mi NNW 26.5 mph 40.3 mph 0.00 in   Overcast
12:53 PM 33.1 °F 20.1 °F 19.0 °F 56% 30.35 in 10.0 mi NNW 25.3 mph 39.1 mph 0.00 in   Overcast
1:53 PM 35.1 °F 21.6 °F 17.1 °F 48% 30.32 in 10.0 mi NNW 31.1 mph 39.1 mph N/A   Overcast
2:53 PM 37.0 °F 25.4 °F 17.1 °F 44% 30.30 in 10.0 mi NNW 25.3 mph 39.1 mph N/A   Overcast
3:53 PM 36.0 °F 23.7 °F 17.1 °F 46% 30.31 in 10.0 mi North 26.5 mph 34.5 mph N/A   Overcast
4:53 PM 37.0 °F 25.6 °F 18.0 °F 46% 30.30 in 10.0 mi NNW 24.2 mph 35.7 mph N/A   Overcast
5:53 PM 37.9 °F 26.3 °F 19.0 °F 47% 30.29 in 10.0 mi NNW 26.5 mph 36.8 mph N/A   Overcast
6:53 PM 37.0 °F 25.9 °F 18.0 °F 46% 30.30 in 10.0 mi NNW 23.0 mph 29.9 mph N/A   Overcast
7:53 PM 34.0 °F 24.2 °F 19.0 °F 54% 30.31 in 10.0 mi NNW 15.0 mph - N/A   Overcast
8:53 PM 32.0 °F 23.6 °F 21.0 °F 64% 30.34 in 10.0 mi NNW 10.4 mph - N/A   Overcast
9:53 PM 28.9 °F 20.4 °F 21.0 °F 72% 30.36 in 10.0 mi NW 9.2 mph - N/A   Mostly Cloudy
10:53 PM 30.0 °F 23.2 °F 23.0 °F 75% 30.35 in 10.0 mi WNW 6.9 mph - N/A   Overcast
11:53 PM 30.0 °F 21.1 °F 21.9 °F 72% 30.33 in 10.0 mi NW 10.4 mph - N/A   Overcast